Location: Earls Croome
(52.0667°N, 2.2000°W)
Time: 19:25:01
(UTC+00:00)

COSMOS 2455 - Pass Details

Date: 27 February 2020
Orbit: 901 x 909 km, 67.1° (Epoch: 09 April)

Event Time Altitude Azimuth Distance (km) Brightness Sun altitude
Exits shadow 05:27:47 - 321° (NW) 3,452 5.6 -15.0°
Reaches altitude 10° 05:30:03 10° 321° (NW) 2,601 4.9 -14.6°
Maximum altitude 05:36:06 84° 234° (SW) 920 2.8 -13.7°
Drops below altitude 10° 05:42:08 10° 147° (SSE) 2,589 5.6 -12.8°
Sets 05:44:38 0° 147° (SSE) 3,527 6.4 -12.4°
